Temperature
-0 0 -0 0 0 -0 -0 0 0 1 1 2 2 1 2 3 3 3 3 3 3 2 2 2 2 2 1 1 1 1 0 0 0 0 -0 -0 -0 -0 -0 -0 -0 -1 -1 -1
-1 -0 -0 -0 -0 -0 -0 -0 -0 0 0 1 2 2 2 2 3 2 3 3 2 2 2 2 2 1 1 1 0 0 0 -0 -0 -1 -1 -1 -1 -1 -1 -1 -1 -1 -1 -1
-1 -1 -0 0 -0 -1 -1 -1 -1 0 1 1 1 1 1 2 2 2 3 2 2 2 2 2 1 1 1 0 0 -0 -0 -0 -1 -1 -1 -1 -1 -1 -1 -1 -1 -1 -2 -2
-1 -1 0 1 -0 -1 -1 -1 -1 -1 -0 0 1 2 2 2 2 2 2 2 2 2 2 1 1 1 0 0 -0 -0 -0 -1 -1 -1 -1 -1 -1 -1 -1 -1 -2 -2 -2 -2
-2 -1 -1 0 -0 -1 -1 -0 -1 -1 -1 0 1 0 1 2 2 2 2 2 2 1 1 1 1 0 0 -0 -0 -0 -1 -1 -1 -1 -2 -2 -2 -2 -2 -2 -2 -2 -2 -2
-2 -1 -0 1 0 -0 -0 -0 -0 -1 -1 -1 -1 -1 -0 2 2 2 2 1 1 1 1 1 0 0 -0 -0 -0 -1 -1 -1 -2 -2 -2 -2 -2 -2 -2 -2 -2 -2 -3 -3
-2 -2 -1 -0 -0 -0 0 1 1 0 0 -0 -1 0 1 2 1 1 1 1 1 1 1 0 -0 -0 -0 -1 -1 -1 -1 -2 -2 -2 -2 -2 -3 -3 -3 -3 -3 -3 -3 -3
-3 -2 -1 -1 -1 -1 0 1 1 1 1 0 1 1 1 1 1 1 1 1 0 0 0 -0 -0 -1 -1 -1 -1 -1 -2 -2 -2 -2 -3 -3 -3 -3 -3 -3 -3 -3 -3 -3
-2 -1 -0 -0 0 1 2 1 2 2 1 1 1 0 0 0 0 0 0 0 -0 -0 -0 -0 -1 -1 -1 -1 -2 -2 -2 -2 -2 -3 -3 -3 -3 -3 -3 -4 -4 -4 -4 -4
-4 -3 -2 -0 1 1 1 1 1 1 1 1 0 0 0 0 -0 -0 -0 -0 -0 -1 -1 -1 -1 -1 -2 -2 -2 -2 -2 -2 -3 -3 -3 -3 -4 -4 -4 -4 -4 -4 -5 -5
-4 -3 -2 -0 1 1 1 1 1 1 1 0 0 -0 -0 -0 -0 -1 -1 -1 -1 -1 -1 -1 -2 -2 -2 -2 -2 -3 -3 -3 -3 -3 -3 -3 -4 -4 -4 -4 -5 -5 -5 -5
-2 -1 -2 -0 1 1 1 1 0 0 0 0 -0 -1 -1 -1 -1 -1 -1 -1 -1 -1 -2 -2 -2 -2 -2 -3 -3 -3 -3 -3 -3 -4 -4 -4 -4 -4 -4 -4 -5 -5 -5 -5
0 1 1 1 1 0 0 0 0 -0 -0 -1 -1 -1 -1 -1 -1 -2 -2 -2 -2 -2 -2 -2 -2 -2 -3 -3 -3 -3 -3 -3 -4 -4 -4 -4 -4 -4 -4 -5 -5 -5 -5 -5
0 0 -0 0 0 0 -0 -0 -0 -1 -1 -1 -1 -1 -2 -2 -2 -2 -2 -2 -2 -2 -2 -2 -2 -3 -3 -3 -3 -3 -4 -4 -4 -4 -4 -4 -5 -5 -5 -5 -5 -5 -5 -5
-0 -0 -0 -0 -0 -0 -1 -1 -1 -1 -1 -1 -2 -2 -2 -2 -3 -3 -3 -3 -3 -3 -3 -3 -3 -3 -3 -3 -4 -4 -4 -4 -4 -4 -4 -5 -5 -5 -5 -5 -5 -5 -5 -5
-1 -1 -1 -1 -1 -1 -1 -1 -1 -1 -1 -2 -2 -2 -3 -3 -3 -3 -3 -3 -3 -3 -3 -3 -3 -3 -3 -4 -4 -4 -4 -4 -4 -4 -4 -5 -5 -5 -5 -6 -6 -6 -6 -6
-1 -2 -1 -1 -1 -1 -1 -1 -2 -2 -2 -2 -2 -3 -3 -3 -3 -3 -3 -3 -3 -3 -3 -3 -3 -4 -4 -4 -4 -4 -4 -4 -4 -5 -5 -5 -5 -5 -6 -6 -6 -6 -6 -6
-1 -1 -1 -1 -2 -2 -2 -2 -2 -2 -2 -2 -2 -3 -3 -3 -3 -3 -4 -4 -3 -3 -3 -3 -4 -4 -4 -4 -4 -4 -4 -4 -5 -5 -5 -5 -5 -6 -6 -6 -6 -6 -6 -6
-2 -2 -2 -2 -2 -2 -2 -2 -2 -2 -2 -2 -3 -3 -3 -3 -3 -4 -4 -4 -4 -3 -3 -4 -4 -4 -4 -4 -4 -4 -5 -5 -5 -5 -5 -6 -6 -6 -6 -6 -6 -6 -7 -7
-2 -2 -2 -2 -2 -2 -2 -2 -2 -2 -2 -3 -3 -3 -3 -3 -3 -4 -4 -4 -4 -4 -4 -4 -4 -4 -4 -5 -5 -5 -5 -5 -5 -5 -5 -6 -6 -6 -6 -6 -6 -7 -7 -7
-2 -2 -2 -2 -2 -2 -2 -2 -3 -2 -3 -3 -3 -3 -3 -3 -3 -4 -4 -4 -4 -4 -4 -4 -4 -4 -5 -5 -5 -5 -5 -5 -5 -5 -5 -6 -6 -6 -6 -6 -6 -7 -7 -7
-2 -2 -2 -3 -3 -3 -3 -3 -3 -3 -3 -3 -3 -3 -3 -3 -3 -4 -4 -4 -4 -4 -4 -4 -4 -5 -5 -5 -5 -5 -5 -5 -5 -5 -5 -6 -6 -6 -6 -6 -7 -7 -7 -7
-2 -3 -3 -3 -3 -3 -3 -3 -3 -3 -3 -3 -3 -3 -3 -3 -4 -4 -4 -4 -4 -4 -4 -4 -5 -5 -5 -5 -5 -5 -5 -5 -5 -5 -5 -6 -6 -6 -6 -6 -6 -7 -7 -7
-3 -3 -3 -3 -3 -3 -3 -3 -3 -3 -3 -3 -3 -3 -3 -4 -4 -4 -4 -4 -4 -4 -4 -5 -5 -5 -5 -5 -5 -5 -5 -5 -5 -5 -5 -6 -6 -6 -6 -6 -6 -7 -7 -7
-3 -3 -3 -3 -4 -4 -4 -4 -4 -4 -4 -4 -4 -4 -4 -4 -4 -4 -4 -4 -4 -5 -5 -5 -5 -5 -5 -5 -5 -5 -5 -5 -5 -5 -6 -6 -6 -6 -6 -6 -6 -7 -7 -7
-3 -4 -4 -4 -4 -4 -4 -4 -4 -4 -4 -5 -4 -4 -4 -4 -4 -5 -5 -5 -5 -5 -5 -5 -5 -5 -5 -5 -5 -6 -6 -6 -6 -6 -6 -6 -6 -6 -6 -6 -6 -7 -7 -7
-4 -4 -4 -4 -4 -4 -4 -4 -5 -5 -5 -5 -5 -5 -5 -5 -5 -5 -5 -5 -5 -5 -5 -5 -6 -6 -6 -6 -6 -6 -6 -6 -6 -6 -6 -6 -6 -6 -6 -6 -6 -6 -7 -7
Wind_Speed
5 4 3 5 8 9 11 10 10 9 10 11 8 7 6 5 4 4 4 4 4 4 4 4 3 3 3 3 3 3 2 3 3 3 3 3 3 3 3 4 4 4 4 4
3 4 4 7 10 11 11 10 11 9 12 10 6 4 6 6 6 6 6 6 6 5 5 5 5 4 4 3 3 3 3 4 3 3 3 3 3 3 3 3 3 3 4 4
3 3 3 9 12 12 8 9 10 14 13 5 5 6 7 7 7 7 7 7 6 6 6 6 6 5 5 4 3 3 3 3 3 3 3 3 3 3 3 3 3 4 4 4
1 1 7 8 4 8 9 10 11 9 7 7 9 7 6 6 7 7 7 6 6 6 6 5 5 5 4 3 3 3 4 4 3 3 3 3 3 3 4 3 3 4 4 5
3 4 8 8 3 5 7 8 9 11 10 8 4 3 6 6 6 7 7 6 6 6 6 5 5 5 4 3 3 4 4 4 4 3 3 3 3 3 3 3 4 4 4 4
4 4 7 6 3 3 3 6 6 8 9 7 3 3 6 4 4 5 5 4 4 4 3 4 4 4 4 4 4 5 5 4 4 3 4 4 4 3 3 3 4 4 4 4
6 6 8 6 3 5 4 6 3 5 6 5 6 8 5 3 3 4 4 4 4 3 4 4 4 4 4 5 6 5 4 3 3 3 4 3 3 2 2 3 3 3 4 4
5 6 8 4 6 7 7 2 2 3 4 5 6 5 5 4 4 3 3 3 3 3 4 3 3 4 4 5 4 3 3 3 3 3 3 2 2 2 2 2 3 3 3 4
8 8 5 5 6 5 3 3 4 3 4 4 4 5 5 4 4 4 4 3 3 3 3 3 3 4 5 4 3 2 3 3 3 2 2 2 2 2 2 2 2 3 3 4
5 8 7 6 5 5 4 5 5 4 4 4 5 5 5 5 4 4 4 3 3 2 3 3 3 3 4 3 3 3 3 3 2 2 1 1 2 2 2 2 2 3 3 4
6 7 6 6 7 8 6 5 5 5 5 5 5 5 5 5 5 4 4 3 3 3 4 4 3 2 2 2 2 2 3 2 2 2 1 1 2 2 3 3 3 3 3 3
8 7 6 7 6 5 6 6 6 5 5 5 5 6 6 5 5 4 4 3 3 3 4 3 2 2 2 2 2 3 2 2 2 2 1 1 1 2 3 3 5 5 5 5
8 6 7 7 5 5 6 6 6 6 6 6 5 5 5 4 4 4 4 4 4 4 4 3 3 3 2 2 2 3 3 2 2 2 2 1 1 1 2 3 4 4 5 6
6 4 5 6 6 6 5 5 4 4 5 5 4 4 3 4 3 4 4 5 4 3 3 3 3 3 2 2 2 3 3 3 2 2 2 2 2 2 2 2 3 3 4 5
8 7 7 5 4 4 3 3 3 4 4 3 3 3 3 4 5 5 4 3 3 3 3 3 3 3 2 2 2 3 2 2 2 1 1 1 1 1 1 2 2 3 3 4
5 5 5 6 6 6 4 4 4 5 5 4 4 4 5 5 5 4 3 3 3 4 4 3 3 3 2 2 2 2 2 2 2 2 1 1 1 1 1 1 2 2 3 3
4 5 6 6 6 6 6 6 6 6 5 5 5 5 3 3 3 3 3 3 3 4 4 4 3 2 2 3 3 2 2 2 2 1 1 1 1 1 1 1 2 2 3 4
7 7 6 6 6 6 6 5 5 5 5 5 4 3 3 4 4 4 3 2 1 2 3 3 3 2 3 3 3 3 2 2 2 2 1 1 1 1 1 1 2 2 3 3
6 6 6 6 6 5 6 6 5 5 4 3 3 4 4 4 4 3 3 3 3 3 3 3 3 3 2 3 3 2 3 2 2 1 1 1 1 1 1 1 2 2 2 3
4 4 4 5 4 4 5 4 4 4 3 3 3 3 3 3 3 3 3 3 4 3 3 3 3 3 3 3 3 3 3 3 2 2 1 1 1 1 1 2 2 2 2 2
3 3 3 4 3 3 3 4 4 4 3 3 4 4 4 3 3 3 3 3 2 2 3 4 3 3 3 3 4 3 3 3 2 2 2 1 1 1 1 2 2 2 2 2
3 3 3 3 2 3 3 2 3 3 2 2 3 3 3 3 3 3 3 3 3 3 2 2 2 3 4 4 2 3 3 3 2 2 2 1 1 1 2 2 2 2 2 2
3 3 3 3 3 2 2 2 2 3 3 3 3 3 3 3 3 3 2 2 2 3 3 2 3 5 5 3 3 3 3 2 2 2 2 2 2 2 2 2 2 2 2 2
2 2 2 1 1 1 2 2 1 1 2 2 2 3 3 2 1 2 2 2 3 3 2 3 5 5 5 3 3 2 2 2 2 2 2 2 2 2 2 2 2 2 2 2
2 2 1 1 1 2 2 1 1 1 1 0 0 1 1 1 2 1 1 2 3 3 2 3 4 5 3 3 2 2 2 2 2 2 2 2 2 2 2 2 2 2 2 2
2 2 2 2 2 2 1 2 1 1 1 1 0 0 1 1 1 1 1 2 2 2 2 2 2 2 2 2 2 2 2 2 2 1 2 2 2 2 1 1 2 1 2 2
1 1 0 0 1 1 2 2 2 2 2 2 1 0 1 1 1 1 2 2 2 2 1 1 2 2 2 2 1 1 2 2 1 2 1 1 1 1 2 2 2 2 2 2
Wind_Direction
247 254 212 222 224 207 207 211 215 235 235 251 243 237 246 248 246 241 238 234 230 232 235 232 234 235 228 229 226 221 220 235 247 257 261 265 273 275 276 270 271 268 272 274
273 262 244 255 243 224 224 225 233 251 261 255 248 237 248 247 239 238 241 239 238 237 235 231 231 234 233 233 236 226 228 240 249 258 266 269 273 275 279 278 273 271 272 272
251 282 309 265 234 214 213 214 205 231 245 246 247 245 242 241 233 233 238 241 238 234 231 231 230 227 225 228 234 229 234 241 244 249 261 269 278 284 276 275 271 273 270 269
204 71 244 249 226 198 214 236 220 232 247 238 240 250 255 233 223 234 237 238 241 239 239 236 230 227 224 223 222 227 234 237 243 245 257 270 276 275 275 276 278 274 274 274
175 231 271 286 239 182 198 252 224 227 244 248 254 296 277 241 215 223 230 234 235 232 233 232 229 219 212 222 224 227 232 236 241 240 250 264 270 275 280 281 287 283 279 277
181 212 243 251 231 177 132 274 239 212 232 235 192 249 264 246 234 244 250 245 239 233 230 227 227 206 202 221 224 231 236 239 239 236 242 253 262 276 284 281 283 288 291 288
207 231 260 252 200 129 178 247 244 203 218 205 204 226 252 266 258 252 255 254 238 225 226 228 218 198 210 222 232 239 241 242 240 240 241 246 257 271 279 288 298 299 300 299
184 216 249 210 146 185 220 240 214 213 211 213 233 256 264 264 263 264 266 264 237 229 241 237 209 198 218 233 240 237 231 233 240 244 245 250 247 272 280 283 296 301 306 309
198 220 256 201 205 230 215 222 229 224 228 219 237 253 258 257 258 262 259 252 241 230 245 247 224 206 220 239 227 219 224 232 242 249 246 240 235 257 279 277 281 292 296 300
242 257 259 253 254 260 234 234 244 229 226 220 234 247 256 257 257 259 257 250 237 224 238 250 246 239 227 229 210 201 219 234 236 231 250 257 252 244 252 264 273 281 287 293
248 267 285 267 242 243 251 255 256 247 234 227 229 245 246 250 252 252 256 251 231 226 236 247 249 246 239 220 193 202 218 221 225 222 225 261 275 264 261 259 260 271 278 284
233 229 219 253 247 239 242 250 245 238 249 244 228 239 246 247 246 246 247 243 241 237 238 244 240 247 241 215 193 192 207 211 212 215 226 239 275 308 297 286 297 300 299 299
233 235 231 254 262 240 236 246 242 233 236 249 245 235 240 247 248 243 245 239 235 235 234 230 229 240 243 221 202 198 201 206 207 210 215 232 254 273 305 319 314 311 313 314
237 231 251 247 248 246 244 250 250 246 242 239 242 244 241 246 249 244 243 241 234 228 225 221 223 241 242 218 206 200 194 205 203 206 215 227 246 261 272 291 312 319 322 327
245 232 237 250 253 254 245 239 249 256 252 253 244 242 238 241 248 249 248 236 219 215 220 217 224 243 237 209 195 188 186 192 192 195 213 228 248 265 276 284 295 310 322 327
251 248 240 243 248 251 247 237 240 251 253 254 254 252 246 244 247 248 238 208 200 216 223 222 229 234 221 196 181 178 189 198 179 182 194 211 235 256 275 281 289 299 307 314
223 242 240 248 251 253 247 240 236 243 246 247 248 250 246 239 239 241 239 228 223 225 221 221 230 226 202 187 179 177 177 187 184 176 195 212 229 248 260 273 283 289 294 307
228 233 228 229 235 244 253 251 245 242 241 244 242 231 223 218 226 236 231 215 216 237 237 229 219 202 195 188 178 171 169 174 178 185 196 211 235 252 257 272 283 291 302 307
237 238 240 239 237 236 240 243 243 240 238 225 220 226 228 226 224 220 200 190 203 229 244 225 208 187 187 191 166 161 164 167 174 187 191 215 235 263 265 276 283 288 299 308
242 241 243 249 243 233 239 242 237 236 229 208 208 217 229 230 212 198 194 212 225 227 214 205 186 181 186 181 164 166 169 172 176 182 184 199 221 242 254 269 278 286 294 298
251 250 248 248 252 251 243 233 224 226 220 198 202 216 223 224 201 183 187 228 249 205 197 194 181 183 176 170 166 165 167 169 175 186 193 202 216 234 251 268 274 282 291 298
250 250 251 249 248 268 270 243 220 212 206 208 210 203 194 196 191 196 213 221 221 199 181 181 180 177 168 160 158 157 160 165 174 180 187 195 208 233 253 269 276 282 290 295
251 248 247 245 241 254 275 250 217 201 201 204 199 193 195 199 190 189 225 223 196 191 175 180 180 171 161 150 150 156 162 169 179 185 194 201 215 228 245 258 268 278 284 291
253 250 248 249 218 221 252 266 233 199 194 200 205 197 180 180 211 225 213 197 185 171 169 180 173 168 157 144 151 158 166 176 183 189 199 207 219 229 241 254 265 274 280 286
241 239 229 204 211 236 230 193 123 118 114 107 144 174 166 178 195 206 185 183 176 152 150 169 166 162 150 148 157 166 173 183 183 185 194 202 213 224 236 249 259 267 278 285
237 234 232 225 221 214 186 169 172 173 155 140 49 57 66 85 128 139 143 148 149 142 142 155 162 153 149 159 168 174 176 186 197 197 197 202 212 217 230 246 260 265 272 277
226 218 212 269 248 195 180 176 181 190 186 187 192 175 128 121 125 125 128 132 138 137 139 140 145 150 155 161 166 173 177 181 185 187 195 204 210 221 232 239 252 262 269 275
Height
1494 1492 1493 1492 1492 1494 1495 1492 1493 1486 1484 1475 1474 1474 1473 1473 1473 1472 1472 1472 1472 1472 1472 1472 1472 1472 1471 1471 1471 1471 1470 1470 1470 1469 1469 1468 1467 1466 1465 1464 1462 1461 1460 1459
1494 1491 1491 1490 1487 1488 1488 1487 1486 1483 1479 1470 1470 1471 1470 1469 1469 1469 1468 1469 1469 1469 1469 1468 1468 1468 1468 1468 1467 1467 1466 1466 1466 1465 1465 1464 1463 1462 1461 1460 1458 1457 1456 1454
1493 1493 1490 1486 1477 1479 1480 1478 1479 1477 1469 1468 1468 1467 1466 1465 1465 1465 1465 1465 1465 1465 1465 1464 1464 1464 1464 1464 1464 1463 1463 1462 1462 1461 1460 1460 1459 1458 1457 1456 1454 1453 1452 1450
1495 1495 1490 1472 1468 1469 1471 1470 1470 1467 1464 1464 1463 1462 1462 1461 1462 1461 1461 1461 1461 1461 1461 1461 1461 1460 1460 1460 1460 1459 1459 1458 1458 1457 1457 1456 1455 1454 1453 1452 1450 1449 1448 1446
1494 1493 1482 1470 1466 1467 1469 1465 1461 1462 1460 1460 1460 1460 1458 1457 1457 1457 1458 1457 1457 1457 1457 1457 1456 1456 1456 1455 1455 1455 1454 1454 1454 1454 1453 1452 1451 1450 1449 1448 1447 1445 1444 1443
1492 1488 1480 1465 1461 1460 1465 1464 1455 1455 1455 1456 1458 1461 1455 1454 1454 1454 1454 1453 1453 1453 1453 1452 1452 1452 1451 1451 1451 1450 1451 1450 1451 1450 1450 1449 1448 1447 1446 1445 1443 1442 1441 1439
1487 1485 1472 1461 1459 1461 1467 1459 1452 1451 1451 1452 1453 1453 1451 1450 1450 1450 1449 1449 1449 1448 1448 1448 1448 1447 1447 1447 1447 1447 1447 1447 1447 1447 1446 1446 1445 1444 1443 1441 1440 1439 1438 1436
1484 1481 1469 1456 1457 1459 1454 1450 1449 1448 1449 1449 1448 1448 1448 1447 1446 1446 1445 1445 1444 1444 1444 1444 1444 1443 1443 1443 1443 1443 1443 1443 1443 1443 1443 1442 1441 1440 1439 1438 1437 1436 1434 1433
1468 1462 1453 1451 1450 1449 1448 1448 1447 1446 1446 1446 1445 1445 1444 1443 1443 1442 1442 1441 1441 1440 1440 1440 1440 1440 1439 1439 1440 1440 1440 1440 1440 1440 1439 1439 1438 1437 1436 1435 1434 1433 1431 1430
1462 1453 1450 1448 1447 1446 1446 1445 1445 1444 1444 1443 1442 1442 1441 1440 1440 1439 1438 1438 1437 1437 1436 1436 1436 1436 1436 1436 1437 1437 1437 1437 1436 1436 1436 1435 1435 1434 1433 1432 1431 1430 1428 1427
1456 1449 1446 1443 1443 1442 1442 1442 1441 1441 1441 1440 1439 1438 1437 1436 1436 1435 1435 1434 1434 1434 1433 1433 1433 1433 1433 1433 1434 1433 1433 1433 1433 1433 1433 1432 1432 1431 1430 1430 1429 1428 1426 1425
1446 1442 1442 1439 1438 1439 1439 1438 1438 1437 1437 1436 1436 1434 1433 1433 1432 1432 1431 1431 1431 1430 1430 1430 1430 1430 1430 1430 1430 1430 1430 1430 1430 1430 1430 1429 1429 1428 1428 1427 1426 1425 1424 1422
1437 1436 1436 1435 1435 1435 1435 1434 1434 1434 1433 1432 1431 1431 1430 1429 1428 1428 1427 1427 1427 1427 1427 1427 1427 1427 1427 1427 1427 1427 1427 1427 1427 1427 1427 1427 1426 1426 1425 1425 1424 1423 1421 1420
1433 1433 1432 1431 1431 1431 1431 1430 1430 1429 1429 1428 1427 1426 1425 1425 1424 1424 1424 1424 1424 1424 1424 1424 1424 1424 1424 1424 1424 1424 1424 1425 1425 1425 1425 1424 1424 1424 1423 1422 1421 1420 1419 1417
1428 1428 1428 1427 1427 1427 1427 1426 1425 1425 1424 1424 1423 1422 1421 1420 1420 1420 1420 1420 1420 1420 1420 1420 1420 1421 1421 1421 1421 1422 1422 1422 1422 1422 1423 1422 1422 1422 1421 1420 1419 1418 1416 1415
1423 1423 1423 1423 1422 1422 1422 1422 1421 1420 1420 1419 1418 1418 1417 1417 1416 1416 1416 1416 1416 1416 1417 1417 1417 1418 1418 1419 1419 1420 1420 1420 1420 1420 1420 1420 1420 1419 1419 1418 1417 1415 1414 1413
1419 1418 1418 1417 1417 1417 1417 1417 1417 1417 1416 1415 1414 1414 1413 1413 1412 1412 1413 1413 1414 1414 1414 1414 1415 1415 1416 1416 1417 1417 1418 1418 1418 1418 1418 1418 1418 1417 1417 1416 1415 1413 1412 1411
1413 1413 1414 1413 1413 1413 1413 1413 1413 1413 1412 1411 1411 1410 1410 1409 1409 1409 1410 1410 1411 1411 1412 1412 1413 1413 1414 1414 1415 1415 1416 1416 1416 1416 1416 1416 1416 1415 1415 1414 1413 1412 1411 1410
1408 1409 1409 1409 1409 1409 1409 1409 1409 1409 1409 1408 1408 1407 1407 1406 1406 1407 1407 1407 1408 1408 1409 1410 1410 1411 1412 1412 1413 1413 1414 1414 1414 1414 1414 1414 1414 1413 1413 1412 1411 1410 1409 1408
1405 1405 1405 1405 1405 1405 1405 1405 1405 1405 1405 1405 1404 1404 1403 1404 1404 1404 1405 1405 1406 1406 1407 1408 1408 1409 1410 1410 1411 1412 1412 1412 1412 1412 1412 1412 1412 1411 1411 1410 1410 1409 1408 1406
1402 1402 1401 1401 1401 1402 1402 1402 1402 1401 1401 1401 1401 1401 1401 1401 1402 1402 1402 1403 1404 1405 1405 1406 1406 1407 1408 1409 1409 1410 1410 1410 1411 1411 1411 1410 1410 1410 1409 1409 1408 1407 1406 1405
1399 1399 1399 1398 1398 1398 1399 1399 1399 1398 1398 1398 1398 1398 1399 1399 1400 1400 1401 1401 1402 1403 1403 1404 1405 1405 1406 1407 1407 1408 1408 1409 1409 1409 1409 1409 1409 1408 1408 1407 1407 1406 1405 1404
1397 1397 1396 1396 1396 1396 1396 1396 1396 1396 1395 1395 1396 1396 1396 1397 1397 1398 1398 1400 1400 1401 1402 1403 1403 1404 1405 1405 1406 1406 1407 1407 1407 1407 1407 1407 1407 1407 1406 1406 1405 1404 1403 1402
1395 1394 1394 1394 1394 1393 1393 1393 1393 1393 1394 1394 1394 1395 1395 1395 1396 1396 1397 1398 1399 1400 1401 1401 1402 1403 1404 1404 1404 1405 1405 1405 1406 1406 1406 1406 1406 1405 1405 1404 1404 1403 1402 1401
1392 1392 1392 1392 1391 1391 1391 1391 1391 1392 1392 1392 1392 1393 1393 1394 1394 1395 1396 1397 1398 1399 1399 1400 1401 1402 1402 1402 1403 1403 1403 1404 1404 1404 1404 1404 1404 1404 1403 1403 1402 1401 1400 1399
1390 1390 1390 1390 1390 1390 1390 1389 1389 1390 1390 1390 1391 1391 1392 1392 1393 1394 1394 1395 1396 1397 1398 1399 1400 1400 1401 1401 1401 1402 1402 1402 1402 1403 1403 1403 1402 1402 1402 1401 1400 1400 1399 1398
1388 1388 1388 1388 1388 1388 1388 1388 1388 1388 1388 1388 1389 1390 1390 1391 1392 1393 1393 1394 1395 1396 1397 1398 1398 1399 1399 1399 1400 1400 1400 1400 1401 1401 1401 1401 1401 1400 1400 1400 1399 1398 1398 1397